STARLINK-37489, 69251

Orbit data source: Space-Track

STARLINK-37489, 69251 is a payload satellite owned by SpaceX/Seattle (US) in LEO that was launched on Fri, 29 May 2026 UTC via an FALCON 9 launch vehicle from the Air Force Eastern Test Range (AFETR). Payload-class satellites include a variety of spacecraft equipped with specific instruments for various scientific and technological missions. These include communications satellites like Starlink; space stations such as the ISS; scientific satellites like the Hubble; Earth observation satellites from companies like Planet Labs, Umbra, and HawkEye 360; GPS; miniature CubeSats for education and research; and military/defense satellites.

Loading next visibility...
Identifier
69251, 2026-117P
Orbit
LEO
Country
Flag of USUS
Related business
Manufacturer
SpaceX/Seattle
Mission
Operational spacecraft
Bus & Motor
STARLINK V2MO, Unknown motor
Mass
575 kg wet, ~530 kg dry
Launch date (UTC)
2026-05-29 (2 weeks ago)
Launch vehicle
FALCON 9
Launch site
Air Force Eastern Test Range (AFETR)
Object type
Payload
Rocket body
Debris
Shape & HBR
Unknown
Radar Cross Section
RCS unknown

Expand to show TLE details & history
Last TLE update: 6 days ago

TLE from 6 days ago
0 STARLINK-37489
1 69251U 26117P   26155.25004630 -.01960753  12117-2 -28128-2 0  9999
2 69251  53.1584 308.7347 0000435  65.9077 317.1791 16.04914567  2160
Epoch: 2026-06-04T06:00Z
TLE epoch observation values (Epoch: 2026-06-04T06:00:04.000Z)
Latitude
18.3205°
Longitude
-19.69841°
Altitude
260.984 km
Speed
7.754 km/s
True Right ascension
21h 32m 03s
True Declination
18° 12' 38"
Sunlit
Object was in daylight at epoch
Visualization orbit readout
Latitude
Unknown
Longitude
Unknown
Altitude
Unknown
Speed
Unknown
Apparent Right ascension
Unknown
Apparent Declination
Unknown
Sunlit
N/A
Visualization observer readout
Local Sidereal Time
13:31:07
Azimuth
Unknown
Elevation
Unknown
Doppler factor
Unknown
Orbital elements
Apogee altitude
261.384 km
Perigee altitude
260.807 km
Semi-major axis
6,639.233 km
Eccentricity
0.00004
Inclination
53.1584°
RAAN
308.7347°
Arg. of periapsis
65.9077°
True anomaly
317.17571°
Mean anomaly
317.1791°
Eccentric anomaly
317.17741°
Mean motion
4.01205 °/min
Orbital period
89.73 mins
BSTAR
-0.0028128
Loading maneuver chart data...
Computing Atmospheric mass density...
Loading historical data...
Loading historical data...
Loading historical data...
Loading historical data...
Loading historical data...
Loading historical data...
Loading historical data...

Documentation

Showing up to 5 results
|